UC IPM Online UC ANR home page UC IPM home page

UC IPM Home

SKIP navigation

 

How to Manage Pests

Interactive Tools and Models:
Grape Powdery Mildew Risk Assessment Index

RAI report for CARUTHERS-01.P (CAR)

Time period: March 19, 2012, to September 29, 2012,
retrieved on November 1, 2014.
Choose year
Graph of RAI for CARUTHERS-01.P
Date RAI Disease pressure Pathogen status Hours
70° ≤ Temp ≤ 85°
Hours
Temp > 95°
Notes
03/19/2012 0 n/a no infection 0.0 0.00  
03/20/2012 0 n/a no infection 0.0 0.00  
03/21/2012 0 n/a no infection 3.0 0.00  
03/22/2012 0 n/a no infection 0.0 0.00  
03/23/2012 0 n/a no infection 0.0 0.00  
03/24/2012 0 n/a no infection 3.8 0.00  
03/25/2012 0 n/a no infection 0.0 0.00  
03/26/2012 0 n/a no infection 0.0 0.00  
03/27/2012 0 n/a no infection 0.0 0.00  
03/28/2012 0 n/a no infection 1.8 0.00  
03/29/2012 0 n/a no infection 1.6 0.00  
03/30/2012 20 n/a no infection 6.2 0.00  
03/31/2012 0 n/a no infection .7 0.00  
04/01/2012 0 n/a no infection 0.0 0.00  
04/02/2012 0 n/a no infection 0.0 0.00  
04/03/2012 0 n/a no infection 5.7 0.00  
04/04/2012 0 n/a no infection 0.0 0.00  
04/05/2012 0 n/a no infection 0.0 0.00  
04/06/2012 0 n/a no infection 0.0 0.00  
04/07/2012 20 n/a no infection 6.0 0.00  
04/08/2012 40 n/a no infection 8.6 0.00  
04/09/2012 60 high reproduces every 5 days 8.4 0.00  
04/10/2012 80 high reproduces every 5 days 6.4 0.00  
04/11/2012 70 high reproduces every 5 days 0.0 0.00  
04/12/2012 60 high reproduces every 5 days 0.0 0.00  
04/13/2012 50 intermediate reproduces every 15 days 0.0 0.00  
04/14/2012 40 intermediate reproduces every 15 days 0.0 0.00  
04/15/2012 30 intermediate reproduces every 15 days .1 0.00  
04/16/2012 50 intermediate reproduces every 15 days 7.6 0.00  
04/17/2012 70 high reproduces every 5 days 8.9 0.00  
04/18/2012 60 high reproduces every 5 days 4.8 0.00  
04/19/2012 80 high reproduces every 5 days 9.2 0.00  
04/20/2012 70 high reproduces every 5 days 4.7 0.00  
04/21/2012 60 high reproduces every 5 days 4.7 0.00  
04/22/2012 50 intermediate reproduces every 15 days 5.5 1.47  
04/23/2012 70 high reproduces every 5 days 11.8 0.00  
04/24/2012 90 high reproduces every 5 days 9.1 0.00  
04/25/2012 100 high reproduces every 5 days 9.1 0.00  
04/26/2012 90 high reproduces every 5 days 3.2 0.00  
04/27/2012 80 high reproduces every 5 days 4.7 0.00  
04/28/2012 100 high reproduces every 5 days 9.6 0.00  
04/29/2012 90 high reproduces every 5 days 5.0 0.00  
04/30/2012 80 high reproduces every 5 days 5.1 0.00  
05/01/2012 100 high reproduces every 5 days 10.2 0.00  
05/02/2012 100 high reproduces every 5 days 9.4 0.00  
05/03/2012 100 high reproduces every 5 days 8.6 0.00  
05/04/2012 100 high reproduces every 5 days 8.2 0.00  
05/05/2012 100 high reproduces every 5 days 8.7 0.00  
05/06/2012 90 high reproduces every 5 days 4.8 0.00  
05/07/2012 80 high reproduces every 5 days 3.2 0.00  
05/08/2012 70 high reproduces every 5 days 2.5 .58  
05/09/2012 60 high reproduces every 5 days 4.2 4.49  
05/10/2012 50 intermediate reproduces every 15 days 4.2 0.00  
05/11/2012 40 intermediate reproduces every 15 days 3.4 0.00  
05/12/2012 30 intermediate reproduces every 15 days 3.0 1.49  
05/13/2012 20 low is present 3.1 1.81  
05/14/2012 40 intermediate reproduces every 15 days 10.6 0.00  
05/15/2012 60 high reproduces every 5 days 11.2 0.00  
05/16/2012 50 intermediate reproduces every 15 days 2.9 0.00  
05/17/2012 40 intermediate reproduces every 15 days 3.5 0.00  
05/18/2012 60 high reproduces every 5 days 10.3 0.00  
05/19/2012 50 intermediate reproduces every 15 days 3.0 0.00  
05/20/2012 40 intermediate reproduces every 15 days 3.9 0.00  
05/21/2012 30 intermediate reproduces every 15 days 4.1 0.00  
05/22/2012 50 intermediate reproduces every 15 days 6.0 0.00  
05/23/2012 70 high reproduces every 5 days 11.7 0.00  
05/24/2012 90 high reproduces every 5 days 11.0 0.00  
05/25/2012 80 high reproduces every 5 days 1.7 0.00  
05/26/2012 100 high reproduces every 5 days 7.9 0.00  
05/27/2012 100 high reproduces every 5 days 10.0 0.00  
05/28/2012 90 high reproduces every 5 days 5.2 0.00  
05/29/2012 80 high reproduces every 5 days 5.8 0.00  
05/30/2012 70 high reproduces every 5 days 3.4 0.00  
05/31/2012 60 high reproduces every 5 days 3.2 0.00  
06/01/2012 50 intermediate reproduces every 15 days 4.9 5.32  
06/02/2012 70 high reproduces every 5 days 8.6 0.00  
06/03/2012 60 high reproduces every 5 days 5.1 0.00  
06/04/2012 80 high reproduces every 5 days 8.2 0.00  
06/05/2012 70 high reproduces every 5 days 4.0 0.00  
06/06/2012 90 high reproduces every 5 days 9.5 0.00  
06/07/2012 100 high reproduces every 5 days 6.1 0.00  
06/08/2012 100 high reproduces every 5 days 12.4 0.00  
06/09/2012 100 high reproduces every 5 days 10.0 0.00  
06/10/2012 90 high reproduces every 5 days 3.9 0.00  
06/11/2012 80 high reproduces every 5 days 2.4 0.00  
06/12/2012 70 high reproduces every 5 days 5.2 0.00  
06/13/2012 60 high reproduces every 5 days 5.4 0.00  
06/14/2012 50 intermediate reproduces every 15 days 3.5 0.00  
06/15/2012 40 intermediate reproduces every 15 days 4.6 0.00  
06/16/2012 30 intermediate reproduces every 15 days 4.7 2.48  
06/17/2012 20 low is present 4.9 7.93  
06/18/2012 10 low is present 5.1 2.49  
06/19/2012 0 low is present 3.4 0.00  
06/20/2012 0 low is present 2.7 0.00  
06/21/2012 0 low is present 3.7 0.00  
06/22/2012 20 low is present 12.3 0.00  
06/23/2012 40 intermediate reproduces every 15 days 11.8 0.00  
06/24/2012 60 high reproduces every 5 days 10.4 0.00  
06/25/2012 80 high reproduces every 5 days 10.6 0.00  
06/26/2012 100 high reproduces every 5 days 11.0 0.00  
06/27/2012 90 high reproduces every 5 days 3.2 0.00  
06/28/2012 80 high reproduces every 5 days 4.3 0.00  
06/29/2012 70 high reproduces every 5 days 5.4 0.00  
06/30/2012 60 high reproduces every 5 days 5.9 0.00  
07/01/2012 80 high reproduces every 5 days 7.0 0.00  
07/02/2012 70 high reproduces every 5 days 5.2 0.00  
07/03/2012 60 high reproduces every 5 days 5.2 0.00  
07/04/2012 50 intermediate reproduces every 15 days 5.0 0.00  
07/05/2012 40 intermediate reproduces every 15 days 3.8 0.00  
07/06/2012 30 intermediate reproduces every 15 days 3.7 0.00  
07/07/2012 20 low is present 4.6 0.00  
07/08/2012 10 low is present 4.6 0.00  
07/09/2012 0 low is present 4.5 0.00  
07/10/2012 0 low is present 4.5 0.00  
07/11/2012 0 low is present 4.9 4.21  
07/12/2012 10 low is present 7.2 3.98  
07/13/2012 20 low is present 8.0 3.34  
07/14/2012 10 low is present 4.7 0.00  
07/15/2012 0 low is present 4.1 0.00  
07/16/2012 0 low is present 3.0 0.00  
07/17/2012 20 low is present 11.8 0.00  
07/18/2012 40 intermediate reproduces every 15 days 14.3 0.00  
07/19/2012 30 intermediate reproduces every 15 days 5.5 0.00  
07/20/2012 20 low is present 5.7 0.00  
07/21/2012 10 low is present 4.4 0.00  
07/22/2012 20 low is present 6.2 3.53  
07/23/2012 10 low is present 5.5 2.33  
07/24/2012 0 low is present 3.9 0.00  
07/25/2012 0 low is present 4.2 0.00  
07/26/2012 0 low is present 4.2 0.00  
07/27/2012 0 low is present 4.9 0.00  
07/28/2012 0 low is present 3.7 0.00  
07/29/2012 0 low is present 3.8 0.00  
07/30/2012 0 low is present 3.9 0.00  
07/31/2012 0 low is present 4.1 2.09  
08/01/2012 0 low is present 4.1 1.40  
08/02/2012 0 low is present 3.8 .18  
08/03/2012 0 low is present 5.5 0.00  
08/04/2012 0 low is present 5.5 0.00  
08/05/2012 0 low is present 5.2 0.00  
08/06/2012 0 low is present 5.2 0.00  
08/07/2012 0 low is present 5.1 0.00  
08/08/2012 20 low is present 6.1 0.00  
08/09/2012 30 intermediate reproduces every 15 days 6.5 4.09  
08/10/2012 40 intermediate reproduces every 15 days 6.7 5.19  
08/11/2012 50 intermediate reproduces every 15 days 6.9 6.20  
08/12/2012 70 high reproduces every 5 days 6.9 0.00  
08/13/2012 80 high reproduces every 5 days 6.3 5.75  
08/14/2012 90 high reproduces every 5 days 12.4 5.91  
08/15/2012 100 high reproduces every 5 days 6.2 5.50  
08/16/2012 90 high reproduces every 5 days 5.3 0.00  
08/17/2012 100 high reproduces every 5 days 6.3 1.03  
08/18/2012 100 high reproduces every 5 days 9.2 0.00  
08/19/2012 100 high reproduces every 5 days 8.3 0.00  
08/20/2012 90 high reproduces every 5 days 5.4 0.00  
08/21/2012 100 high reproduces every 5 days 6.9 0.00  
08/22/2012 100 high reproduces every 5 days 8.5 0.00  
08/23/2012 90 high reproduces every 5 days 5.3 0.00  
08/24/2012 80 high reproduces every 5 days 5.5 0.00  
08/25/2012 70 high reproduces every 5 days 5.8 0.00  
08/26/2012 60 high reproduces every 5 days 4.3 0.00  
08/27/2012 50 intermediate reproduces every 15 days 4.3 0.00  
08/28/2012 40 intermediate reproduces every 15 days 3.9 0.00  
08/29/2012 30 intermediate reproduces every 15 days 4.0 0.00  
08/30/2012 20 low is present 4.7 2.86  
08/31/2012 10 low is present 4.8 0.00  
09/01/2012 30 intermediate reproduces every 15 days 10.5 0.00  
09/02/2012 20 low is present 3.4 0.00  
09/03/2012 10 low is present 2.8 0.00  
09/04/2012 0 low is present 5.6 0.00  
09/05/2012 20 low is present 8.2 .09  
09/06/2012 10 low is present 5.7 0.00  
09/07/2012 0 low is present 5.7 0.00  
09/08/2012 20 low is present 6.3 0.00  
09/09/2012 10 low is present 5.4 0.00  
09/10/2012 0 low is present 5.4 0.00  
09/11/2012 0 low is present 3.2 0.00  
09/12/2012 0 low is present 4.8 0.00  
09/13/2012 0 low is present 4.5 3.18  
09/14/2012 0 low is present 5.6 4.01  
09/15/2012 0 low is present 5.9 2.61  
09/16/2012 0 low is present 5.4 2.69  
09/17/2012 0 low is present 5.4 0.00  
09/18/2012 0 low is present 4.0 0.00  
09/19/2012 0 low is present 3.9 0.00  
09/20/2012 0 low is present 4.7 0.00  
09/21/2012 0 low is present 3.5 0.00  
09/22/2012 0 low is present 2.9 .36  
09/23/2012 0 low is present 4.2 4.35  
09/24/2012 0 low is present 2.8 0.00  
09/25/2012 0 low is present 3.5 0.00  
09/26/2012 0 low is present 3.9 0.00  
09/27/2012 0 low is present 4.7 0.00  
09/28/2012 0 low is present 4.9 0.00  
09/29/2012 0 low is present 3.6 0.00  

Top of page


Statewide IPM Program, Agriculture and Natural Resources, University of California
All contents copyright 2014 The Regents of the University of California. All rights reserved.

For noncommercial purposes only, any Web site may link directly to this page. FOR ALL OTHER USES or more information, read Legal Notices. Unfortunately, we cannot provide individual solutions to specific pest problems. See our Home page, or in the U.S., contact your local Cooperative Extension office for assistance.

Agriculture and Natural Resources, University of California

Accessibility   web template revised: November 1, 2014 Contact webmaster.